Find Starlink 33762

NORAD ID: 63442 Int'l Des: 2025-069 Owner: SPXS Country: US Constellation: starlink operational
LEOCIRCULAR

現在のビュー

3D地球を読み込み中...

About Starlink 33762

Starlink 33762 (NORAD 63442) is a starlink constellation satellite (v2 mini) launched Apr 4, 2025 by SPXS of US. It operates in LEO, CIRCULAR orbit with a mass of 575.00 kg.

Starlink 33762について

説明を読み込み中...

次回通過

Passes for default location (London). Set your location on the main map for personalized predictions.

高度履歴

Loading altitude history...

軌道要素

1 63442U 25069K 26167.93307902 .00042963 00000-0 77607-3 0 9990
2 63442 53.1593 36.2106 0001992 30.3090 329.8034 15.49316222 68672
Epoch: Jun 16, 2026 • Age: 45 hours

現在のステータス

高度 420.2 km
速度 7.66 km/s
衛星直下点 -10.52°S, 176.21°W
打ち上げ日 Apr 4, 2025
運用期間 1.2 years
タイプ internet

技術仕様

分類 Payload
質量 575.00 kg
乾燥質量 530.00 kg
総質量 575.00 kg
長さ 0.30 m
直径 4.10 m
スパン 29.00 m
形状 Box + pan
製造者 SPXS
バスタイプ Starlink V2MO
フェーズステータス In Orbit
所有者/国 SPXS/US

Most Searched